Home > Weather > Laatzen > Past weeks

Flag for Germany Weather for the Past 2 Weeks in Laatzen, Lower Saxony, Germany

Now
43 °F

Scattered showers. Scattered clouds.


Feels Like: 36 °F
Forecast: 34 / 42 °F
Wind: 12 mph from West

Location: Hannover

Current Time: Feb 11, 2016 at 4:09:36 PM

Latest Report: Feb 11, 2016 at 3:20 PM


Visibility: N/A

Pressure: 29.59 "Hg

Humidity: 76%

Dew point: 36 °F

Location of LaatzenLocation

Historic Weather in Laatzen — Graph

°F

Laatzen Temperature Yesterday

Maximum temperature yesterday: 41 °F (at 3:50 PM)
Minimum temperature yesterday: 36 °F (at 12:20 AM)
Average temperature yesterday: 39 °F

High & Low Weather Summary for the Past Weeks

 TemperatureHumidityPressure
High55 °F (Feb 7, 11:50 AM)100% (Jan 30, 7:50 PM)30.27 "Hg (Jan 30, 7:50 PM)
Low34 °F (Feb 9, 11:20 PM)59% (Feb 7, 11:50 AM)28.80 "Hg (Feb 9, 6:50 PM)
Average44 °F83%29.75 "Hg
* Reported Jan 27 2:20 PM — Feb 11 2:50 PM, Laatzen, Weather by CustomWeather, © 2016

Note: Actual official high and low records may vary slightly from our data, if they occured in-between our weather recording intervals... More about our weather records

Advertising

Laatzen Weather History for the Previous 24 Hours

 ConditionsComfort  
Time TempWeatherWind HumidityBarometerVisibility
2:50 PM
Thu, Feb 11
43 °FScattered clouds.14 mph76%29.59 "HgN/A
2:20 PM45 °FPassing clouds.14 mph76%29.56 "HgN/A
1:50 PM43 °FPassing clouds.8 mph81%29.59 "HgN/A
1:20 PM37 °FPassing clouds.13 mph87%29.59 "HgN/A
12:50 PM43 °FPartly sunny.14 mph81%29.59 "HgN/A
12:20 PM43 °FPartly sunny.13 mph81%29.59 "HgN/A
11:50 AM43 °FScattered clouds.15 mph81%29.59 "HgN/A
11:20 AM41 °FScattered clouds.14 mph81%29.59 "HgN/A
10:50 AM41 °FScattered clouds.14 mph81%29.56 "HgN/A
10:20 AM39 °FPassing clouds.14 mph87%29.56 "HgN/A
9:50 AM39 °FPassing clouds.12 mph87%29.56 "HgN/A
9:20 AM37 °FScattered clouds.10 mph87%29.56 "HgN/A
8:50 AM39 °FPartly sunny.13 mph87%29.53 "HgN/A
8:20 AM37 °FScattered clouds.12 mph87%29.53 "HgN/A
7:50 AM37 °FScattered clouds.9 mph87%29.53 "HgN/A
7:20 AM37 °FPassing clouds.10 mph87%29.53 "HgN/A
6:50 AM37 °FPassing clouds.10 mph87%29.53 "HgN/A
6:20 AM37 °FPassing clouds.9 mph87%29.53 "HgN/A
5:50 AM37 °FPassing clouds.10 mph87%29.50 "HgN/A
5:20 AM37 °FPassing clouds.13 mph87%29.50 "HgN/A
4:20 AM39 °FPassing clouds.15 mph87%29.47 "HgN/A
3:50 AM39 °FPassing clouds.15 mph87%29.47 "HgN/A
3:20 AM39 °FPassing clouds.16 mph87%29.47 "HgN/A
2:50 AM41 °FPassing clouds.18 mph81%29.47 "HgN/A
2:20 AM41 °FPassing clouds.20 mph81%29.45 "HgN/A
1:50 AM41 °FPartly cloudy.18 mph87%29.45 "HgN/A
1:20 AM41 °FPartly cloudy.17 mph87%29.42 "HgN/A
12:50 AM41 °FSprinkles. Passing clouds.17 mph87%29.42 "HgN/A
12:20 AM41 °FSprinkles. Passing clouds.16 mph87%29.42 "HgN/A
11:50 PM
Wed, Feb 10
41 °FSprinkles. Passing clouds.16 mph87%29.39 "HgN/A
10:50 PM41 °FSprinkles. Passing clouds.15 mph93%29.39 "HgN/A
10:20 PM41 °FPartly cloudy.13 mph87%29.36 "HgN/A
9:50 PM41 °FPartly cloudy.13 mph93%29.36 "HgN/A
9:20 PM41 °FPassing clouds.12 mph93%29.36 "HgN/A
8:50 PM41 °FPassing clouds.14 mph93%29.33 "HgN/A
8:20 PM41 °FPassing clouds.13 mph93%29.33 "HgN/A
7:50 PM41 °FPassing clouds.13 mph93%29.33 "HgN/A
7:20 PM41 °FLight rain. Passing clouds.12 mph87%29.33 "HgN/A
6:50 PM41 °FPassing clouds.12 mph87%29.33 "HgN/A
6:20 PM41 °FPassing clouds.9 mph87%29.30 "HgN/A
5:50 PM41 °FPartly cloudy.9 mph87%29.30 "HgN/A
5:20 PM41 °FPartly sunny.10 mph87%29.30 "HgN/A
4:50 PM41 °FPartly sunny.12 mph87%29.30 "HgN/A
4:20 PM41 °FPartly sunny.10 mph87%29.30 "HgN/A
Weather by CustomWeather, © 2016

See weather overviewHow to use our weather pages